Wind_Speed
34 34 32 29 26 23 20 18 16 15 19 22 20 19 19 19 19 19 19 20 21 22 23 23 24 23 22 22 21 21 23 24 25 26 28 30 30 31 32 34 34 35 34 35
34 33 32 30 27 26 25 23 20 18 22 26 23 22 22 21 21 22 23 24 26 26 26 26 25 24 24 24 24 24 26 27 29 30 31 32 33 34 35 35 36 36 36 36
32 29 31 31 29 28 29 26 23 21 24 28 26 24 25 25 25 26 26 28 28 28 27 26 27 28 27 27 27 28 29 31 32 33 34 35 36 37 37 38 38 39 39 39
30 30 30 31 31 30 29 28 27 26 26 27 27 25 24 25 27 29 30 31 30 28 29 30 30 29 30 31 30 31 33 34 35 36 37 37 38 39 39 40 40 41 41 42
28 30 31 32 30 30 29 26 27 29 30 29 26 24 21 22 27 31 33 34 32 30 30 31 32 33 33 34 34 34 36 36 37 37 38 38 39 40 41 42 43 43 44 43
24 26 29 31 30 29 29 28 27 28 30 32 28 25 21 23 29 33 34 34 32 31 31 33 34 35 36 36 37 37 37 37 37 38 38 39 41 42 43 44 45 45 45 45
23 24 27 29 30 29 29 28 26 26 28 28 24 25 26 29 32 35 36 35 34 33 33 34 35 36 37 37 37 37 37 37 37 37 38 40 42 44 45 46 46 46 46 46
16 20 23 27 28 28 28 28 26 20 16 15 17 21 28 33 35 37 38 38 38 37 36 36 36 36 36 36 35 36 36 36 36 37 39 41 43 44 45 46 47 47 47 47
14 14 18 21 23 25 25 26 25 23 20 15 15 26 32 32 33 35 38 39 40 39 38 36 35 33 33 33 34 35 35 36 37 38 40 41 43 45 46 47 48 48 49 50
15 14 15 17 19 21 22 21 23 27 25 20 14 23 30 30 30 32 34 36 36 35 34 33 32 31 31 32 33 34 35 36 37 39 41 42 44 45 47 48 49 51 51 52
14 15 14 15 18 18 20 21 23 24 26 23 18 22 25 27 28 30 29 28 28 29 28 29 29 30 30 31 33 34 35 37 38 40 42 44 45 47 48 50 51 52 53 54
15 15 15 16 16 16 17 20 21 25 25 26 24 27 27 27 29 28 26 24 24 25 26 28 29 30 31 32 33 35 36 38 40 42 44 45 47 48 50 51 53 54 55 57
14 15 12 13 15 15 17 19 20 22 23 24 24 30 31 30 30 28 25 24 24 25 26 28 29 31 32 33 35 36 38 39 41 43 45 47 48 50 51 53 55 56 58 59
12 14 15 14 15 17 19 20 20 21 22 22 26 31 32 32 31 28 25 24 24 25 27 29 31 33 34 36 37 39 41 42 44 46 48 49 50 51 53 55 56 57 59 60
11 13 14 14 12 13 18 20 19 21 23 25 27 30 33 33 32 29 27 26 26 27 29 32 34 36 38 39 41 43 45 46 47 49 50 51 52 54 55 56 57 58 59 59
10 12 13 13 13 12 14 16 17 19 24 27 29 31 33 31 30 30 29 29 30 31 33 35 37 39 41 42 43 45 46 47 47 48 49 50 52 54 55 56 57 58 58 59
8 11 13 12 13 13 15 19 21 23 25 27 31 32 32 32 31 31 32 33 34 35 36 37 39 41 41 42 43 44 45 46 47 48 50 50 52 53 53 54 55 56 56 56
9 11 11 12 14 15 19 20 21 24 26 28 29 32 34 35 35 35 35 35 36 36 36 36 37 38 39 40 42 43 45 46 48 49 50 51 51 52 53 53 54 54 54 54
7 9 11 13 15 18 23 24 23 23 26 28 30 32 33 34 35 35 35 35 35 35 35 35 37 38 38 41 42 44 46 47 47 48 49 49 50 51 51 52 51 51 51 51
8 9 11 13 16 19 22 23 22 23 26 27 28 30 32 32 33 33 33 33 33 32 33 35 36 38 40 41 42 43 44 44 45 46 47 48 48 48 48 48 49 49 49 49
9 10 12 14 17 21 23 24 23 25 26 26 27 28 29 30 30 30 30 31 30 31 33 34 36 37 38 39 40 41 42 43 44 44 45 45 45 45 46 46 47 47 46 45
11 12 13 14 17 20 21 22 23 23 24 24 24 25 26 26 27 28 28 29 30 31 32 33 34 35 36 37 38 39 40 40 40 41 42 43 43 44 45 44 44 42 41 40
12 13 15 16 17 19 20 22 22 23 23 23 23 23 23 24 25 26 27 28 29 29 30 31 32 33 34 35 35 36 36 37 38 39 40 41 42 42 41 40 38 35 34 32
14 13 15 17 18 19 19 20 20 21 21 21 21 22 22 22 23 24 25 26 26 27 28 29 29 30 30 31 32 33 34 34 36 37 38 37 37 36 34 31 29 27 26 24
16 16 16 17 18 18 18 19 19 19 20 20 20 20 20 21 22 23 23 23 24 25 25 26 26 27 28 28 30 30 31 32 33 33 33 33 31 29 26 24 22 20 19 18
16 17 17 18 18 18 18 18 18 18 18 18 18 18 19 19 19 19 20 20 21 22 22 23 24 25 26 26 27 28 28 29 30 30 30 28 25 22 19 17 16 16 15 14
Wind_Direction
224 222 222 223 224 220 211 228 233 228 237 244 232 210 193 216 228 222 223 227 233 238 240 241 248 252 257 263 271 276 281 286 288 290 292 293 295 297 300 302 304 307 310 314
225 223 222 223 223 220 213 218 219 220 229 238 234 220 207 213 231 229 222 224 228 235 239 243 248 255 258 263 268 274 278 282 284 284 285 286 289 291 294 297 299 302 306 309
225 222 222 222 222 222 219 217 215 218 230 241 240 233 222 218 230 237 233 231 231 233 239 245 250 253 259 263 266 271 275 278 280 280 281 282 283 286 288 291 294 297 301 303
223 219 220 221 222 226 224 221 216 216 228 241 246 242 235 230 233 237 239 237 238 240 244 248 253 257 263 266 268 271 273 275 276 277 278 278 280 282 284 286 289 293 296 298
222 220 221 222 222 225 225 223 222 221 225 232 240 244 238 242 242 241 243 244 247 249 250 252 255 259 263 266 269 271 273 274 275 275 274 274 276 278 281 283 286 290 293 294
221 224 224 225 224 226 224 222 224 227 230 235 234 236 238 237 241 244 247 251 254 254 255 257 259 261 263 266 268 270 270 271 272 272 271 272 275 277 279 282 285 288 290 291
221 224 225 226 226 225 225 222 225 232 236 243 243 238 235 236 239 244 250 254 257 259 261 262 263 263 264 265 267 269 269 270 270 269 270 272 274 277 279 281 284 286 287 289
231 231 230 230 230 226 226 224 222 224 244 258 256 245 239 239 240 244 250 255 259 263 265 266 266 265 265 266 266 266 267 268 268 269 270 272 274 276 279 281 283 285 286 288
215 227 238 238 232 227 225 225 217 213 216 234 237 230 236 243 247 250 252 256 259 263 265 266 266 265 265 265 265 265 266 267 267 267 269 271 273 275 278 280 283 284 286 287
197 203 222 236 232 225 221 222 216 214 217 224 232 239 245 254 256 257 256 257 258 260 262 263 263 263 263 263 264 265 265 266 267 268 270 271 273 275 277 280 282 283 285 286
204 199 200 217 229 227 221 218 220 221 220 223 235 242 246 242 249 251 253 255 257 258 260 261 261 263 263 264 264 265 266 267 268 269 271 272 274 276 277 279 280 282 284 285
198 199 203 208 223 225 226 227 223 223 222 223 235 253 251 253 253 254 256 255 256 257 258 260 262 263 264 264 265 266 267 268 270 271 273 273 274 275 277 278 280 282 283 285
204 207 214 211 212 217 216 224 225 230 227 228 234 252 252 259 258 256 255 254 254 255 258 261 264 265 266 266 267 268 269 270 272 273 274 275 275 276 278 280 282 283 284 286
208 208 218 230 215 210 210 213 217 224 229 232 234 245 250 255 261 257 257 256 253 256 261 264 267 268 268 269 269 270 271 271 272 273 274 275 277 279 280 282 283 284 285 287
210 210 223 242 235 235 214 211 215 223 227 233 238 243 249 255 257 261 263 261 262 266 269 269 270 270 270 271 271 272 273 274 275 276 276 278 280 282 282 284 285 286 288 289
224 223 232 243 247 245 238 230 228 230 233 235 240 247 250 253 260 262 267 272 273 273 271 271 271 271 272 272 273 275 275 277 279 279 280 281 283 284 285 286 288 289 290 290
249 241 242 245 245 247 248 244 243 243 245 248 249 253 258 268 271 269 270 271 273 273 273 274 274 272 273 275 277 277 278 280 281 283 284 286 288 289 290 290 291 291 291 291
261 256 253 247 246 254 259 264 260 256 255 256 258 261 264 270 274 274 276 278 278 279 278 278 276 277 279 281 282 282 284 286 287 289 290 290 291 291 292 292 292 292 292 293
276 266 260 252 248 255 261 263 263 265 264 263 264 266 268 271 274 276 277 279 280 280 279 279 279 280 283 284 286 289 290 290 291 292 292 293 293 293 294 294 294 294 294 295
286 274 266 261 257 255 261 265 268 270 270 268 268 269 270 272 274 277 278 279 280 280 279 280 281 283 286 289 292 293 294 294 295 295 296 296 296 296 296 296 296 296 296 296
294 285 275 268 264 266 272 273 276 276 276 275 271 271 271 272 275 278 279 280 280 282 283 286 289 291 292 294 295 296 297 298 298 299 299 299 299 299 299 299 299 298 298 298
301 294 289 282 275 274 279 278 277 278 277 277 276 275 275 276 276 279 279 281 282 285 289 291 293 294 296 297 298 299 300 301 302 302 302 303 302 302 302 302 302 302 302 301
304 301 296 292 287 284 282 282 281 280 281 281 280 280 280 281 281 281 283 285 287 290 293 294 296 298 299 300 301 303 304 306 306 306 307 306 306 306 306 306 306 305 305 306
311 305 299 298 296 291 288 285 283 281 282 282 282 282 282 283 285 286 287 289 292 294 296 298 300 301 302 304 306 307 309 310 311 311 311 311 311 311 311 311 310 310 311 312
312 309 305 303 301 299 295 290 287 285 284 283 283 284 286 288 288 289 290 292 294 297 299 301 303 305 307 308 310 312 314 315 316 317 318 318 318 318 317 317 317 318 319 321
315 311 310 308 306 303 301 297 293 290 288 287 287 288 290 291 292 292 293 295 298 300 303 306 308 310 311 313 315 317 319 320 322 324 324 325 325 326 327 327 327 330 333 336
Height
5793 5799 5804 5810 5815 5819 5823 5830 5834 5838 5841 5841 5844 5848 5850 5854 5856 5859 5861 5862 5863 5863 5863 5865 5864 5864 5867 5870 5871 5872 5872 5872 5872 5872 5871 5870 5869 5868 5867 5865 5864 5863 5861 5859
5788 5794 5799 5803 5809 5814 5817 5823 5830 5836 5837 5837 5840 5844 5847 5850 5852 5854 5856 5857 5858 5859 5859 5860 5860 5859 5862 5865 5867 5868 5868 5868 5867 5867 5866 5865 5864 5863 5862 5860 5859 5857 5855 5854
5782 5789 5793 5797 5803 5808 5813 5818 5824 5830 5832 5832 5835 5839 5842 5845 5848 5849 5851 5851 5852 5854 5855 5855 5856 5857 5858 5860 5861 5863 5863 5862 5861 5860 5859 5858 5857 5856 5856 5854 5853 5851 5849 5848
5776 5782 5787 5792 5797 5802 5807 5812 5817 5822 5826 5828 5830 5833 5837 5839 5842 5843 5844 5845 5847 5849 5851 5852 5852 5851 5852 5854 5855 5856 5856 5856 5855 5854 5853 5852 5850 5849 5848 5847 5846 5844 5843 5841
5771 5777 5781 5787 5792 5797 5802 5807 5811 5815 5819 5822 5825 5828 5833 5834 5834 5835 5837 5838 5842 5845 5846 5847 5847 5847 5847 5847 5848 5849 5849 5848 5847 5846 5845 5844 5843 5842 5840 5839 5838 5837 5835 5833
5768 5772 5777 5782 5787 5791 5796 5801 5805 5809 5812 5815 5820 5823 5828 5828 5827 5827 5829 5832 5836 5838 5840 5840 5841 5841 5841 5841 5841 5841 5841 5840 5839 5838 5837 5836 5835 5834 5832 5830 5829 5828 5826 5824
5764 5768 5772 5776 5781 5786 5791 5796 5801 5804 5807 5811 5816 5818 5821 5820 5820 5821 5824 5826 5828 5831 5832 5833 5834 5834 5833 5833 5833 5833 5832 5832 5831 5830 5829 5828 5827 5825 5824 5822 5820 5819 5817 5815
5762 5766 5769 5772 5777 5781 5786 5791 5797 5803 5807 5810 5813 5814 5812 5812 5815 5817 5818 5820 5821 5823 5824 5824 5825 5825 5825 5825 5825 5825 5824 5824 5823 5822 5821 5820 5819 5817 5815 5812 5811 5809 5806 5804
5760 5765 5767 5769 5772 5777 5781 5786 5792 5797 5800 5804 5807 5806 5804 5805 5809 5811 5812 5813 5814 5814 5815 5815 5816 5816 5816 5816 5816 5816 5816 5815 5815 5814 5813 5812 5810 5808 5806 5804 5802 5799 5797 5795
5756 5760 5764 5766 5769 5773 5778 5782 5786 5789 5794 5798 5802 5800 5800 5800 5802 5803 5803 5804 5805 5805 5806 5807 5807 5807 5808 5808 5808 5808 5808 5807 5806 5806 5805 5803 5801 5799 5797 5795 5792 5789 5787 5784
5754 5758 5762 5765 5766 5770 5774 5778 5781 5785 5789 5793 5796 5795 5790 5791 5793 5792 5793 5794 5796 5797 5798 5798 5799 5799 5800 5800 5800 5799 5799 5798 5797 5796 5795 5794 5792 5790 5787 5785 5782 5779 5775 5772
5752 5755 5758 5761 5765 5767 5771 5774 5777 5781 5783 5787 5789 5789 5786 5786 5785 5784 5785 5787 5789 5790 5790 5791 5791 5792 5792 5792 5792 5791 5790 5789 5788 5787 5785 5783 5781 5779 5776 5773 5770 5767 5763 5760
5751 5754 5756 5759 5762 5764 5766 5770 5773 5776 5779 5781 5784 5783 5780 5780 5778 5777 5778 5780 5782 5783 5783 5784 5784 5784 5784 5784 5783 5782 5782 5780 5779 5777 5775 5772 5770 5767 5764 5761 5758 5754 5750 5746
5749 5751 5753 5754 5754 5756 5760 5764 5767 5771 5773 5775 5776 5775 5774 5774 5773 5770 5772 5774 5775 5776 5776 5777 5776 5776 5776 5775 5774 5773 5771 5770 5768 5766 5763 5760 5758 5755 5752 5748 5744 5740 5736 5732
5747 5750 5751 5750 5751 5753 5756 5759 5762 5764 5766 5767 5767 5768 5768 5767 5767 5765 5765 5767 5768 5769 5769 5769 5769 5768 5767 5766 5764 5763 5761 5759 5756 5754 5751 5748 5745 5741 5738 5734 5730 5726 5721 5717
5746 5747 5748 5749 5750 5751 5753 5755 5756 5758 5759 5761 5761 5761 5761 5760 5759 5759 5760 5760 5761 5761 5761 5761 5760 5759 5757 5755 5754 5752 5749 5746 5744 5741 5738 5735 5732 5728 5724 5720 5715 5711 5706 5702
5744 5745 5746 5747 5747 5748 5750 5749 5750 5752 5753 5755 5755 5755 5752 5752 5752 5753 5753 5753 5753 5753 5753 5752 5750 5748 5747 5745 5742 5740 5737 5734 5732 5729 5725 5722 5718 5714 5710 5705 5701 5696 5691 5686
5743 5743 5744 5745 5746 5746 5746 5745 5746 5747 5747 5748 5748 5748 5747 5746 5746 5746 5746 5746 5745 5744 5743 5742 5740 5738 5736 5734 5732 5729 5726 5723 5720 5716 5713 5709 5704 5700 5695 5691 5686 5681 5676 5671
5741 5741 5741 5742 5743 5742 5740 5740 5741 5742 5742 5742 5742 5741 5741 5740 5739 5739 5738 5738 5737 5736 5735 5733 5731 5729 5727 5724 5721 5718 5715 5712 5708 5705 5701 5696 5691 5686 5681 5676 5671 5666 5662 5657
5740 5739 5739 5739 5739 5737 5736 5734 5735 5737 5735 5735 5735 5734 5734 5733 5733 5732 5731 5730 5729 5728 5726 5724 5722 5720 5717 5714 5711 5708 5705 5701 5697 5692 5688 5683 5678 5673 5668 5663 5658 5653 5648 5643
5737 5737 5736 5735 5734 5732 5732 5731 5732 5733 5731 5729 5728 5728 5727 5727 5726 5725 5724 5723 5721 5720 5718 5716 5714 5711 5708 5705 5702 5698 5695 5690 5685 5681 5676 5671 5666 5661 5656 5650 5645 5640 5634 5630
5735 5734 5733 5731 5730 5731 5728 5727 5727 5726 5723 5722 5722 5721 5721 5720 5719 5718 5717 5716 5714 5713 5711 5709 5706 5703 5700 5697 5693 5689 5685 5680 5675 5670 5665 5660 5654 5649 5643 5637 5632 5627 5622 5618
5732 5731 5729 5728 5728 5725 5723 5722 5721 5719 5718 5717 5717 5716 5715 5714 5713 5712 5711 5710 5708 5706 5704 5701 5699 5696 5692 5689 5685 5681 5676 5671 5666 5661 5655 5649 5643 5637 5631 5626 5621 5616 5611 5608
5729 5728 5726 5724 5721 5720 5718 5717 5716 5714 5713 5712 5711 5711 5710 5709 5708 5707 5705 5703 5702 5700 5697 5695 5692 5689 5685 5682 5677 5673 5668 5663 5658 5652 5646 5640 5634 5628 5622 5617 5612 5608 5604 5601
5727 5724 5722 5720 5718 5716 5714 5712 5711 5710 5708 5707 5706 5706 5705 5704 5702 5701 5699 5698 5696 5694 5692 5689 5686 5683 5679 5675 5671 5667 5662 5656 5650 5644 5638 5632 5626 5621 5616 5611 5607 5603 5600 5597
5723 5721 5719 5717 5714 5712 5710 5708 5706 5705 5704 5703 5702 5701 5700 5699 5697 5696 5695 5693 5691 5689 5686 5683 5680 5677 5673 5670 5665 5661 5656 5650 5644 5638 5632 5626 5621 5616 5612 5608 5604 5601 5598 5595